[[{"header":{"parameterUnit":"m.s-1","parameterCategory":1,"la1":30.2991,"la2":30.254,"lo1":-89.0895,"lo2":-89.0444,"dy":0.0017,"dx":0.0017,"nx":28,"ny":28,"refTime":"2024-06-08T09:00:00:Z","depth":0,"parameterNumber":2,"parameterNumberName":"U-component_of_WINDS"},"data":[0,0,0,0,0,0,0,0,0,0,0,0,0,0,0,0,0,0,0,0,0,0,0,0,0,0,0,0,0,0,0,0,0,0,0,0,0,0,0,0,0,0,0,0,0,0,0,0,0,0,0,0,0,0,0,0,0,0,2.865,2.865,0,2.8708,2.8709,2.8709,2.8657,2.8655,2.8653,2.8651,2.8711,2.8714,2.8718,0,0,0,0,0,0,0,0,0,0,0,0,0,2.8491,2.8494,2.865,2.865,2.8651,2.8708,2.8709,2.8709,2.8658,2.8655,2.8652,2.865,2.8709,2.8714,2.8718,0,0,0,0,0,0,0,0,0,0,0,0,0,2.8556,2.8495,2.8649,2.8632,2.8631,2.8708,2.8709,2.871,2.8658,2.8655,2.8652,2.8649,2.8708,2.8713,2.8718,2.8815,0,0,2.8735,2.8737,0,0,0,0,0,0,0,0,2.8552,2.8562,2.8634,2.8633,2.8632,2.8672,2.8674,2.8745,2.8659,2.8648,2.8651,2.8647,2.87,2.8706,2.8724,2.8818,2.8821,2.8735,2.8739,2.8741,2.8742,0,0,0,0,0,0,0,2.8548,2.8559,2.8673,2.8635,2.8634,2.862,2.8626,2.8688,2.8691,2.8649,2.8645,2.8652,2.8699,2.8719,2.8725,2.8822,2.8735,2.874,2.8743,2.8745,2.8993,2.8996,0,0,0,0,0,0,2.8545,2.8555,2.8671,2.8674,2.8584,2.8626,2.8632,2.8663,2.869,2.8692,2.8655,2.865,2.8711,2.8719,2.8727,2.8838,2.8741,2.8746,2.8749,2.899,2.8994,2.8998,0,0,0,0,0,0,2.8542,2.8556,2.8668,2.8614,2.8627,2.8632,2.8666,2.8665,2.8685,2.8695,2.8696,2.8675,2.8709,2.8719,2.8793,2.884,2.8748,2.8753,2.8986,2.8991,2.8996,2.9065,0,0,0,0,0,0,2.8538,2.8555,2.8593,2.8615,2.863,2.8734,2.8669,2.8669,2.8694,2.8688,2.8714,2.8715,2.8707,2.8785,2.8798,2.8846,2.8757,2.8982,2.8988,2.8994,2.9058,2.9072,2.9083,0,0,0,0,0,2.8532,2.8611,2.8595,2.8609,2.8677,2.8737,2.8746,2.8735,2.8698,2.8735,2.8741,2.8714,2.8833,2.8793,2.8807,2.8857,2.8979,2.8986,2.8994,2.9053,2.9069,2.9083,0,0,0,0,0,0,2.8595,2.8614,2.8596,2.8685,2.8709,2.8728,2.8775,2.8754,2.8789,2.8782,2.8768,2.8774,2.885,2.8862,2.8816,2.895,2.89,2.8911,2.894,2.8955,2.8967,2.8962,2.8762,0,0,0,0,0,2.8619,2.8666,2.868,2.8757,2.877,2.877,2.8796,2.8785,2.8811,2.8821,2.8833,2.8858,2.89,2.8929,2.8969,2.906,2.9063,2.9101,2.9114,2.9124,2.9133,2.9177,2.9194,2.9023,2.9022,2.9022,0,0,2.8669,2.8685,2.8716,2.8769,2.8787,2.8835,2.8779,2.8834,2.8868,2.8829,2.8898,2.8908,2.8934,2.9016,2.9053,2.9028,2.9181,2.9134,2.9142,2.9145,2.9187,2.9203,2.9217,2.9028,2.9027,2.9026,0,0,2.8784,2.8803,2.8866,2.8885,2.8912,2.8912,2.8927,2.8949,2.8953,2.9022,2.8992,2.9033,2.9108,2.9127,2.9147,2.9266,2.9241,2.928,2.9344,2.9388,2.9401,2.9413,2.9452,2.9466,2.9289,2.9289,2.9289,0,2.8843,2.8914,2.8902,2.8957,2.8979,2.8946,2.9009,2.9028,2.9067,2.9083,2.9055,2.9145,2.9162,2.9245,2.9274,2.9292,2.9307,2.9276,2.94,2.9412,2.9423,2.9459,2.9475,2.9294,2.9293,2.9293,2.9292,0,2.8983,2.9033,2.9081,2.9118,2.9147,2.9206,2.9201,2.9231,2.9218,2.922,2.9288,2.9306,2.9348,2.9367,2.9356,2.9448,2.9431,2.9402,2.9351,2.9443,2.9477,2.9492,2.93,2.9298,2.9297,2.9296,0,0,2.9139,2.9167,2.9184,2.9199,2.9226,2.9264,2.932,2.936,2.9384,2.9413,2.9457,2.952,2.9492,2.9514,2.9505,2.9544,2.9632,2.9509,2.9509,2.9528,2.9731,2.975,2.9767,2.9616,2.9619,2.9621,2.9727,0,2.9252,2.9349,2.9338,2.9431,2.9474,2.9442,2.949,2.9511,2.9514,2.9551,2.9554,2.9597,2.9559,2.9572,2.9609,2.9613,2.9672,2.9606,2.9656,2.9658,2.9647,2.9785,2.9807,2.9906,2.9741,2.9743,2.9745,0,2.9397,2.9428,2.9524,2.9541,2.9559,2.9603,2.9636,2.9673,2.9695,2.9694,2.9717,2.97,2.9754,2.9703,2.9777,2.9732,2.9752,2.9757,2.976,2.9762,2.9705,2.9788,2.9938,2.9951,2.9767,2.9765,2.9763,0,2.9496,2.9563,2.9627,2.9642,2.9664,2.9695,2.9706,2.9725,2.9748,2.9778,2.9792,2.9828,2.9847,2.9875,2.9866,2.9831,2.994,2.989,2.9939,2.9939,2.9961,2.9959,3.0113,2.998,2.9979,2.9979,2.9979,0,2.9622,2.9681,2.9672,2.9712,2.9776,2.9763,2.9827,2.9833,2.985,2.9889,2.9865,2.9902,2.989,2.9926,2.9921,2.998,2.999,2.9989,2.9986,2.9989,2.9989,3.0,2.9992,2.9983,2.9982,2.9981,2.9981,0,2.9743,2.974,2.9807,2.9822,2.9827,2.9874,2.9885,2.9922,2.9922,2.9972,2.9983,2.9983,3.0024,3.0019,3.0066,3.0062,3.0134,3.0125,3.0126,3.0123,3.0171,3.0165,3.0335,3.0354,3.0211,3.0213,3.0214,0,2.9821,2.9866,2.9884,2.9908,2.9921,2.9961,2.9983,2.9972,2.9997,3.0023,3.0056,3.0095,3.0124,3.0191,3.0195,3.0229,3.0219,3.0276,3.0224,3.0224,3.0215,3.0211,3.0214,3.0285,3.0287,3.0288,3.0289,0,2.996,2.9955,2.999,3.0022,3.005,3.0076,3.0099,3.012,3.011,3.0139,3.018,3.0203,3.0249,3.0287,3.0319,3.0328,3.0306,3.0306,3.0318,3.032,3.0318,3.0316,3.0151,3.0301,3.03,3.0299,3.0298,3.0298,3.006,3.0096,3.0114,3.0152,3.0167,3.0189,3.0222,3.0226,3.026,3.0296,3.0287,3.0333,3.0351,3.0391,3.0404,3.0439,3.0418,3.0437,3.0441,3.0445,3.0449,3.0315,3.0445,3.0445,3.0444,3.0444,3.0444,0,3.0194,3.0203,3.0238,3.027,3.0299,3.0276,3.03,3.0325,3.0365,3.0384,3.0413,3.0459,3.0494,3.05,3.0534,3.056,3.055,3.0569,3.0565,3.0567,3.0468,3.0452,3.0576,3.0576,3.0576,3.0576,3.0576,3.0576,3.0267,3.0325,3.0323,3.0388,3.0397,3.0441,3.0456,3.0474,3.0489,3.054,3.0569,3.0573,3.0586,3.062,3.065,3.0651,3.0663,3.0685,3.0681,3.0588,3.0575,3.0562,3.0547,3.0688,3.0689,3.0777,3.0778,3.0779]},{"header":{"parameterUnit":"m.s-1","parameterCategory":1,"la1":30.2991,"la2":30.254,"lo1":-89.0895,"lo2":-89.0444,"dy":0.0017,"dx":0.0017,"nx":28,"ny":28,"refTime":"2024-06-08T09:00:00:Z","depth":0,"parameterNumber":3,"parameterNumberName":"V-component_of_WINDS"},"data":[0,0,0,0,0,0,0,0,0,0,0,0,0,0,0,0,0,0,0,0,0,0,0,0,0,0,0,0,0,0,0,0,0,0,0,0,0,0,0,0,0,0,0,0,0,0,0,0,0,0,0,0,0,0,0,0,0,0,3.5378,3.538,0,3.5519,3.5521,3.5522,3.5499,3.5496,3.5494,3.5491,3.5629,3.5635,3.5641,0,0,0,0,0,0,0,0,0,0,0,0,0,3.5081,3.5086,3.5378,3.538,3.5382,3.5519,3.5521,3.5523,3.5499,3.5496,3.5493,3.549,3.5627,3.5634,3.5642,0,0,0,0,0,0,0,0,0,0,0,0,0,3.5214,3.5088,3.5378,3.5387,3.5389,3.5519,3.5521,3.5523,3.55,3.5496,3.5492,3.5489,3.5625,3.5634,3.5643,3.5771,0,0,3.567,3.5674,0,0,0,0,0,0,0,0,3.5207,3.5225,3.5384,3.5386,3.5389,3.5488,3.5467,3.5606,3.5501,3.5457,3.5491,3.5487,3.5585,3.5597,3.5631,3.5777,3.5783,3.5671,3.5676,3.568,3.5682,0,0,0,0,0,0,0,3.5198,3.5219,3.5434,3.5386,3.5389,3.5381,3.5396,3.5493,3.554,3.5461,3.546,3.5477,3.5585,3.5623,3.5634,3.5785,3.567,3.5678,3.5684,3.5687,3.604,3.6044,0,0,0,0,0,0,3.5187,3.5212,3.5429,3.5438,3.5287,3.5389,3.5406,3.546,3.5539,3.5547,3.548,3.5475,3.5609,3.5624,3.5639,3.5792,3.568,3.5688,3.5693,3.6036,3.6041,3.6045,0,0,0,0,0,0,3.5181,3.5207,3.5424,3.5325,3.5352,3.5398,3.5459,3.5464,3.5501,3.5553,3.556,3.551,3.5607,3.5626,3.5738,3.5797,3.5692,3.57,3.6031,3.6037,3.6043,3.6101,0,0,0,0,0,0,3.5172,3.5204,3.5256,3.5326,3.5357,3.5523,3.5462,3.547,3.5518,3.5513,3.5583,3.5591,3.5605,3.5725,3.5747,3.5807,3.5707,3.6026,3.6034,3.6041,3.6094,3.6108,3.612,0,0,0,0,0,3.5162,3.5265,3.5258,3.5285,3.5422,3.5526,3.5544,3.556,3.5523,3.5573,3.5605,3.5589,3.5787,3.5736,3.5761,3.5825,3.6022,3.6032,3.604,3.6088,3.6105,3.612,0,0,0,0,0,0,3.5199,3.5275,3.5268,3.5398,3.5456,3.5522,3.5586,3.5579,3.5647,3.5639,3.5655,3.5671,3.5783,3.5815,3.5758,3.5951,3.5899,3.5913,3.5927,3.5944,3.5957,3.5946,3.5715,0,0,0,0,0,3.5223,3.5303,3.5364,3.5473,3.5503,3.554,3.5586,3.5593,3.5653,3.5677,3.5718,3.5775,3.5849,3.5898,3.597,3.6098,3.6112,3.6154,3.6167,3.6178,3.619,3.6257,3.6276,3.6075,3.6075,3.6075,0,0,3.5272,3.5323,3.5373,3.5482,3.5528,3.5608,3.556,3.5648,3.5707,3.569,3.5798,3.5829,3.5893,3.6013,3.6068,3.6043,3.6248,3.619,3.6198,3.6204,3.6268,3.6287,3.6304,3.6081,3.608,3.6079,0,0,3.5402,3.545,3.5545,3.5592,3.5663,3.5687,3.5709,3.5777,3.5798,3.5907,3.5895,3.5964,3.6093,3.6139,3.6179,3.6324,3.631,3.6347,3.6416,3.6481,3.6497,3.6511,3.6561,3.6579,3.6359,3.6359,3.6359,0,3.5454,3.5577,3.5595,3.5684,3.573,3.572,3.5815,3.5859,3.5948,3.598,3.5951,3.6112,3.6154,3.6283,3.6319,3.6353,3.6376,3.6339,3.6494,3.6508,3.6522,3.6569,3.6588,3.6363,3.6363,3.6362,3.6362,0,3.5635,3.5721,3.5788,3.5877,3.5932,3.6023,3.6052,3.6104,3.6107,3.6132,3.6242,3.6292,3.6373,3.6405,3.6408,3.6534,3.6516,3.6491,3.6438,3.6544,3.6589,3.6608,3.6369,3.6367,3.6366,3.6365,0,0,3.5794,3.589,3.5915,3.5954,3.603,3.6095,3.6184,3.6265,3.6309,3.6371,3.6444,3.6553,3.653,3.6575,3.6583,3.664,3.675,3.6608,3.6609,3.6631,3.6889,3.6906,3.6927,3.6741,3.6745,3.6748,3.6883,0,3.593,3.609,3.6108,3.625,3.6327,3.6317,3.6395,3.6448,3.6474,3.6541,3.6569,3.6645,3.661,3.6637,3.6694,3.6725,3.6801,3.6715,3.6807,3.681,3.679,3.6951,3.6971,3.7096,3.6901,3.6904,3.6906,0,3.611,3.6179,3.6329,3.6393,3.6426,3.6496,3.657,3.6635,3.6695,3.6709,3.6759,3.6759,3.6848,3.6792,3.6913,3.6854,3.6892,3.6913,3.6918,3.6926,3.6863,3.6962,3.7136,3.7155,3.6934,3.6932,3.693,0,3.6208,3.6338,3.6444,3.6477,3.6555,3.6604,3.6638,3.6694,3.6741,3.6805,3.6835,3.6908,3.6948,3.7003,3.7021,3.6979,3.714,3.7087,3.7152,3.7152,3.7186,3.7183,3.7367,3.7213,3.7213,3.7212,3.7212,0,3.6358,3.6449,3.6488,3.6553,3.6655,3.6673,3.6772,3.6803,3.6853,3.6921,3.6917,3.6981,3.7002,3.7068,3.7083,3.7179,3.7197,3.7209,3.7212,3.7209,3.7207,3.7234,3.7225,3.7217,3.7216,3.7215,3.7214,0,3.6484,3.6514,3.6629,3.6693,3.6711,3.6783,3.6837,3.6898,3.6922,3.7009,3.703,3.7068,3.7147,3.717,3.7264,3.7273,3.7386,3.7381,3.7366,3.7366,3.7429,3.7422,3.7635,3.7663,3.7492,3.7494,3.7495,0,3.6577,3.6647,3.6719,3.6766,3.6803,3.6878,3.6926,3.6946,3.6995,3.7067,3.7119,3.7197,3.726,3.7384,3.7419,3.7489,3.7485,3.7555,3.7496,3.749,3.7484,3.7479,3.7485,3.7566,3.7567,3.7569,3.757,0,3.6737,3.6749,3.6819,3.6895,3.6953,3.7013,3.707,3.7108,3.7135,3.7191,3.7272,3.7321,3.7417,3.7493,3.7564,3.7596,3.7587,3.7589,3.7607,3.7604,3.7592,3.7598,3.7395,3.7583,3.7582,3.7581,3.758,3.758,3.6848,3.691,3.697,3.7048,3.7094,3.7147,3.7208,3.724,3.7309,3.739,3.7396,3.7483,3.7538,3.7633,3.7669,3.7735,3.7714,3.7742,3.7748,3.7754,3.7759,3.7583,3.7748,3.7748,3.7747,3.7747,3.7747,0,3.7007,3.7045,3.7117,3.7199,3.7259,3.7248,3.731,3.7361,3.7438,3.7491,3.7554,3.7645,3.7718,3.7758,3.7831,3.7875,3.7873,3.7894,3.789,3.7897,3.7774,3.775,3.7894,3.7894,3.7894,3.7894,3.7894,3.7894,3.7097,3.72,3.7218,3.7342,3.7378,3.7465,3.7501,3.755,3.7592,3.7695,3.7757,3.7783,3.783,3.7905,3.7971,3.7981,3.8006,3.803,3.8036,3.7921,3.7906,3.7891,3.7868,3.8035,3.8036,3.8153,3.8154,3.8155]}]]